"Time","Temp","Dewpoint","Humidity","Pressure","Direction","Speed","Gust","Precip","PrecipRate"
"00:04:59","37.8","36.5","95","29.89","332","3.5","9.2","0.00","0.07"
"00:09:56","37.8","36.4","94.8","29.89","329","4.8","12","0.00","0.07"
"00:14:56","37.8","36.2","94","29.89","318","2.8","10.4","0.00","0.06"
"00:19:58","37.7","36.1","94","29.88","330","3.5","7","0.00","0.05"
"00:24:56","37.6","36","94","29.88","332","4.2","12","0.00","0.03"
"00:29:59","37.6","36","94","29.88","341","3.7","13","0.00","0.02"
"00:34:57","37.5","35.9","94","29.88","336","5","9.2","0.00","0.02"
"00:39:56","37.5","35.9","94","29.88","337","4.2","9.2","0.00","0.01"
"00:44:58","37.5","35.9","94","29.88","332","5.4","14","0.00","0.00"
"00:49:56","37.5","35.9","94","29.87","335","5.4","15","0.00","0.00"
"00:54:58","37.4","35.8","94","29.87","329","3.2","9.2","0.00","0.00"
"00:59:57","37.3","35.7","94","29.87","335","4.8","10.4","0.00","0.00"
"01:04:58","37.2","35.6","94","29.87","334","5.2","12","0.00","0.00"
"01:09:59","37.2","35.6","94","29.87","331","3.7","9.2","0.00","0.00"
"01:14:58","37.2","35.6","94","29.87","331","3.5","7","0.00","0.00"
"01:19:57","37.2","35.6","94","29.87","321","2.8","9","0.00","0.00"
"01:24:59","37.2","35.6","94","29.87","335","3.2","9.2","0.00","0.00"
"01:29:57","37.2","35.6","94","29.87","323","2.3","4","0.00","0.00"
"01:34:59","37.1","35.5","94","29.87","312","2","5","0.00","0.00"
"01:39:58","37.1","35.5","94","29.87","347","2.7","6","0.00","0.00"
"01:44:57","37.1","35.5","94","29.87","314","2.6","5.8","0.00","0.00"
"01:49:59","37.1","35.5","94","29.86","327","3.2","7","0.00","0.00"
"01:54:58","37.1","35.5","94","29.86","323","3.2","7","0.00","0.00"
"01:59:56","37.2","35.6","94","29.86","313","2.2","7","0.00","0.00"
"02:04:57","37.3","35.7","94","29.86","328","3","8.1","0.00","0.00"
"02:09:59","37.3","35.7","94","29.86","318","2","6.9","0.00","0.00"
"02:14:58","37.3","35.7","94","29.86","305","0.9","4","0.00","0.00"
"02:19:57","37.3","35.7","94","29.86","334","1.4","5","0.00","0.00"
"02:24:59","37.3","35.7","94","29.86","330","1.4","4.6","0.00","0.00"
"02:29:57","37.4","35.8","94","29.86","329","1.7","5","0.00","0.00"
"02:34:56","37.6","36","94","29.86","315","2.5","5","0.00","0.00"
"02:39:59","37.7","36.1","94","29.86","335","2.2","7","0.00","0.00"
"02:44:57","37.9","36.3","94","29.86","311","2.2","6","0.00","0.00"
"02:49:56","37.9","36.2","93.4","29.86","302","2.1","4","0.00","0.00"
"02:54:58","38","36.2","93","29.86","316","1.8","4","0.00","0.00"
"02:59:57","38.1","36.3","93","29.86","326","3.1","9.2","0.00","0.00"
"03:04:59","38.1","36.2","92.4","29.86","312","2.8","7","0.00","0.00"
"03:09:57","38.2","36.1","92","29.86","332","3","6.9","0.00","0.00"
"03:14:56","38.2","36.1","92","29.86","324","3","10.4","0.00","0.00"
"03:19:59","38.3","36.1","91.5","29.85","324","2.6","6","0.00","0.00"
"03:24:57","38.4","36","91","29.85","315","2.1","7","0.00","0.00"
"03:29:59","38.5","35.9","90.4","29.85","323","4.3","12","0.00","0.00"
"03:34:53","38.7","35.8","89.3","29.84","328","4.1","10.4","0.00","0.00"
"03:39:56","38.9","35.8","88.7","29.84","305","4","14","0.00","0.00"
"03:44:59","38.9","35.8","88.7","29.84","326","3.1","9.2","0.00","0.00"
"03:49:57","38.9","35.6","88.1","29.84","334","3.2","6","0.00","0.00"
"03:54:59","38.8","35.6","88","29.84","313","3.2","8.1","0.00","0.00"
"03:59:57","38.8","35.6","88","29.85","318","3.7","10.4","0.00","0.00"
"04:04:58","38.9","35.5","87.5","29.85","313","3.9","8.1","0.00","0.00"
"04:09:52","39","35.4","86.8","29.85","269","2.7","6","0.00","0.00"
"04:14:52","39","35.2","86","29.85","277","2.6","7","0.00","0.00"
"04:19:58","39","35.2","85.8","29.85","295","2.5","6","0.00","0.00"
"04:24:57","39","35","85.2","29.85","273","2.9","6","0.00","0.00"
"04:29:59","39.2","34.8","84.1","29.85","295","3.4","9.2","0.00","0.00"
"04:34:58","39.4","34.7","83","29.85","278","3.4","9","0.00","0.00"
"04:39:57","39.5","34.8","82.9","29.85","294","2.5","6","0.00","0.00"
"04:44:59","39.5","34.6","82.5","29.86","288","2.9","11","0.00","0.00"
"04:49:58","39.5","34.5","82","29.86","269","2","5.8","0.00","0.00"
"04:54:56","39.3","34.3","82","29.86","283","1.3","5","0.00","0.00"
"04:59:59","39.2","34.2","82","29.86","293","0.7","4.6","0.00","0.00"
"05:04:56","39.2","34.1","81.6","29.86","272","1.6","4","0.00","0.00"
"05:09:58","39.2","34","81.1","29.86","275","0.9","3.5","0.00","0.00"
"05:14:57","39.1","34.1","82","29.87","254","1","3.5","0.00","0.00"
"05:19:59","38.9","33.9","82","29.87","246","0.8","4","0.00","0.00"
"05:24:58","38.9","34","82.4","29.87","250","0.4","2.3","0.00","0.00"
"05:29:56","38.9","34.2","83","29.87","250","0.6","2.3","0.00","0.00"
"05:34:59","38.9","34.4","83.7","29.87","249","0.9","3","0.00","0.00"
"05:39:58","38.9","34.5","84","29.87","247","1.2","3.5","0.00","0.00"
"05:44:56","39","34.6","84","29.88","247","0.9","2.3","0.00","0.00"
"05:49:59","39.1","34.6","83.6","29.88","247","1","2.3","0.00","0.00"
"05:54:58","39.1","34.5","83.2","29.88","247","0.6","2.3","0.00","0.00"
"05:59:56","39.1","34.6","83.7","29.89","247","0","0","0.00","0.00"
"06:04:58","38.9","34.6","84.2","29.89","247","0","0","0.00","0.00"
"06:09:57","38.8","34.7","85","29.89","247","0.2","2.3","0.00","0.00"
"06:14:57","38.5","34.4","85","29.89","247","0","0","0.00","0.00"
"06:19:56","38.2","34.1","84.9","29.89","231","0.1","2","0.00","0.00"
"06:24:59","38.1","33.8","84.4","29.89","231","0.2","2.3","0.00","0.00"
"06:29:57","37.9","33.8","85","29.89","231","0.4","2.3","0.00","0.00"
"06:34:56","37.7","33.4","84.4","29.89","231","0.6","4","0.00","0.00"
"06:39:59","37.7","33.2","83.5","29.89","232","0","1","0.00","0.00"
"06:44:58","37.8","33.2","83.4","29.90","232","0","1.2","0.00","0.00"
"06:49:57","37.7","33.1","83.3","29.90","232","0","0","0.00","0.00"
"06:54:56","37.5","33.2","84.3","29.90","232","0","0","0.00","0.00"
"06:59:59","37.2","33.3","85.5","29.90","232","0","0","0.00","0.00"
"07:04:56","37.1","33.3","86.3","29.90","232","0","0","0.00","0.00"
"07:09:58","37.1","33.8","87.7","29.90","232","0","0","0.00","0.00"
"07:14:56","37.6","34.2","87.2","29.91","218","1","4","0.00","0.00"
"07:19:59","38.2","34.1","85.1","29.91","253","1.6","6","0.00","0.00"
"07:24:57","38.9","34","82.4","29.91","226","2.8","5.8","0.00","0.00"
"07:29:59","39.3","34.3","81.8","29.91","230","1.6","7","0.00","0.00"
"07:34:57","39.6","33.4","78.6","29.91","239","4.1","10.4","0.00","0.00"
"07:39:56","40.2","32.9","75","29.91","286","4","11","0.00","0.00"
"07:44:58","41","32.6","71.8","29.91","263","4.4","11.5","0.00","0.00"
"07:49:56","41.6","32.9","71.2","29.91","269","3.7","7","0.00","0.00"
"07:54:58","41.9","32.8","70","29.91","247","3.3","7","0.00","0.00"
"07:59:57","42.2","32.8","69.2","29.92","248","3.8","7","0.00","0.00"
"08:04:58","42.4","32.8","68.6","29.92","239","4.1","11","0.00","0.00"
"08:09:56","42.4","32.6","68.1","29.92","258","2.9","11.5","0.00","0.00"
"08:14:59","42.7","32.7","67.6","29.92","267","2.5","6","0.00","0.00"
"08:19:58","43.1","33.1","67.5","29.92","244","3.3","11","0.00","0.00"
"08:24:56","43.4","32.1","64.4","29.92","260","3.5","11.5","0.00","0.00"
"08:29:58","43.8","32.4","64","29.92","261","3.9","11","0.00","0.00"
"08:34:56","44.1","32.8","64.4","29.92","260","3.6","9.2","0.00","0.00"
"08:39:59","44.3","33","64.2","29.92","244","3.4","11.5","0.00","0.00"
"08:44:57","44.4","32.4","62.6","29.92","259","4.2","9.2","0.00","0.00"
"08:49:59","44.6","33.2","64","29.92","242","3.5","8","0.00","0.00"
"08:54:57","44.7","33.1","63.5","29.92","227","4.6","11.5","0.00","0.00"
"08:59:59","44.9","33.8","65.1","29.92","230","5.2","10.4","0.00","0.00"
"09:04:56","45","33.5","63.8","29.92","261","6.2","13","0.00","0.00"
"09:09:58","45.3","34.1","64.7","29.92","243","4.6","11","0.00","0.00"
"09:14:57","45.8","33.9","63","29.93","239","5.5","11.5","0.00","0.00"
"09:19:59","46","33.3","61.2","29.93","251","6.5","17.3","0.00","0.00"
"09:24:57","45.3","32.5","60.6","29.93","253","5.2","12.7","0.00","0.00"
"09:29:59","45.4","33.2","62.2","29.93","242","6.9","13","0.00","0.00"
"09:34:57","45.2","32.6","61.2","29.93","236","8.8","14","0.00","0.00"
"09:39:56","45.2","32.8","61.6","29.93","261","5.8","13.8","0.00","0.00"
"09:44:58","45.6","32.7","60.4","29.93","255","5.4","14","0.00","0.00"
"09:49:56","46.1","32.7","59.4","29.93","265","5.4","11.5","0.00","0.00"
"09:54:58","46","32.1","58.3","29.93","278","6.9","17.3","0.00","0.00"
"09:59:57","45.4","30.5","55.7","29.94","267","7.6","17.3","0.00","0.00"
"10:04:53","45.5","32.6","60.6","29.94","246","6.2","12","0.00","0.00"
"10:09:59","45.8","32.5","59.7","29.94","265","6.1","14","0.00","0.00"
"10:14:57","45.5","32.2","59.5","29.95","258","5.3","11.5","0.00","0.00"
"10:19:48","45.4","31.9","58.9","29.95","271","6.4","13","0.00","0.00"
"10:24:58","45.8","32.5","59.6","29.95","257","5.3","13","0.00","0.00"
"10:29:56","45.2","31","57.4","29.95","286","7.3","14","0.00","0.00"
"10:34:58","45.1","31.8","59.5","29.95","246","7","13","0.00","0.00"
"10:39:56","45.5","31.9","58.8","29.95","264","8.3","19","0.00","0.00"
"10:44:59","45.6","31.9","58.7","29.96","270","8.3","18.4","0.00","0.00"
"10:49:58","45.5","31.4","57.7","29.96","274","7.2","14","0.00","0.00"
"10:54:56","44.8","31.9","60.2","29.96","264","7.3","18.4","0.00","0.00"
"10:59:57","44.5","32","61.3","29.97","253","6","16.1","0.00","0.00"
"11:04:59","44.2","32.2","62.5","29.97","327","5.3","15","0.00","0.00"
"11:09:56","44","33.2","65.7","29.97","314","5.3","11.5","0.00","0.00"
"11:14:59","43.9","33.9","67.6","29.98","302","3.4","10.4","0.00","0.00"
"11:19:56","44.2","33.2","65.1","29.98","290","5.1","12","0.00","0.00"
"11:24:58","44.7","34","66.1","29.98","269","3.3","9.2","0.00","0.00"
"11:29:56","46","34.7","64.6","29.98","305","5.3","10","0.00","0.00"
"11:34:58","46.6","33.8","61","29.97","318","6.5","15","0.00","0.00"
"11:39:56","47.2","35.1","62.8","29.97","290","4.9","10.4","0.00","0.00"
"11:44:58","48","34.7","60","29.97","326","6.3","16.1","0.00","0.00"
"11:49:56","47.8","33.8","58","29.97","257","7.4","16.1","0.00","0.00"
"11:54:58","48","33.1","56","29.97","265","7.4","16.1","0.00","0.00"
"11:59:56","48.2","32.1","53.5","29.97","244","7.9","14","0.00","0.00"
"12:04:53","48.9","33.2","54.6","29.97","276","6.4","18","0.00","0.00"
"12:09:58","49.1","31.9","51.5","29.97","267","8.5","17.3","0.00","0.00"
"12:14:57","48.8","31.5","51.1","29.97","268","6.8","17.3","0.00","0.00"
"12:19:59","48.5","32.3","53.4","29.97","255","5.4","13","0.00","0.00"
"12:24:57","47.9","31.5","52.9","29.97","238","5.2","14","0.00","0.00"
"12:29:59","47.2","31.7","54.6","29.98","239","6.7","17.3","0.00","0.00"
"12:34:57","46.7","30.4","52.9","29.98","269","7.5","20","0.00","0.00"
"12:39:56","46.4","30.4","53.6","29.98","254","6.8","19.6","0.00","0.00"
"12:44:58","46.3","30.4","53.7","29.99","252","7.5","17.3","0.00","0.00"
"12:49:56","46.8","31","54","29.99","241","7.5","16.1","0.00","0.00"
"12:54:58","47.3","30.9","52.8","29.99","278","6.5","13.8","0.00","0.00"
"12:59:56","48.8","32.3","52.9","29.99","266","5.4","14","0.00","0.00"
"13:04:56","49.5","32.2","51.1","29.98","272","7.1","16","0.00","0.00"
"13:09:58","48.7","30.4","49","29.98","305","7.1","18.4","0.00","0.00"
"13:14:58","48.8","31.2","50.5","29.99","293","7.5","20","0.00","0.00"
"13:19:56","48.6","30","48.3","29.99","276","7.2","16.1","0.00","0.00"
"13:24:58","48.7","30.1","48.4","29.99","297","8.1","19.6","0.00","0.00"
"13:29:56","47.9","29.1","48","30.00","293","6.1","18.4","0.00","0.00"
"13:34:58","47.7","30.4","51","30.00","289","5.9","17.3","0.00","0.00"
"13:39:57","49.1","33.2","54.1","30.00","298","5.2","14","0.00","0.00"
"13:44:59","49.4","30.8","48.6","30.00","268","6.5","16","0.00","0.00"
"13:49:57","48.7","30","48.2","30.00","283","5.9","15","0.00","0.00"
"13:54:59","47.9","29.4","48.4","30.00","296","7.4","20","0.00","0.00"
"13:59:53","47.6","29.8","49.9","30.01","279","7","15","0.00","0.00"
"14:04:58","48.7","32.1","52.5","30.01","253","6.2","17.3","0.00","0.00"
"14:09:59","49.1","30.8","49.2","30.01","276","8.1","18.4","0.00","0.00"
"14:14:58","48.6","31.3","51.1","30.01","263","5.7","13.8","0.00","0.00"
"14:19:56","49.3","32.6","52.3","30.01","283","5.3","15","0.00","0.00"
"14:24:59","49.6","31.1","48.8","30.01","276","6.7","21","0.00","0.00"
"14:29:57","50","32","49.9","30.01","257","7.4","14","0.00","0.00"
"14:34:59","50.6","31.2","47.2","30.01","302","8.9","22","0.00","0.00"
"14:39:58","50.4","30.1","45.6","30.01","260","7.9","19.6","0.00","0.00"
"14:44:56","50.1","30","45.9","30.01","287","8.3","18.4","0.00","0.00"
"14:49:58","49.2","30","47.3","30.01","265","5.7","15","0.00","0.00"
"14:54:56","49.6","30.6","47.7","30.01","261","7.6","16","0.00","0.00"
"14:59:58","49.9","30.4","46.9","30.01","240","9.7","24.2","0.00","0.00"
"15:04:59","49.2","28.8","45.1","30.01","261","7.1","15","0.00","0.00"
"15:09:56","48.7","29.7","47.6","30.01","271","6","14","0.00","0.00"
"15:14:59","48.6","29.6","47.7","30.02","289","6.4","16.1","0.00","0.00"
"15:19:57","48.3","29","47.1","30.02","276","6.9","16.1","0.00","0.00"
"15:24:59","48.1","28.9","47.2","30.02","286","7","19.6","0.00","0.00"
"15:29:57","48.1","29.3","47.9","30.02","230","5.1","12","0.00","0.00"
"15:34:59","49","30.6","49","30.02","246","8.5","18.4","0.00","0.00"
"15:39:58","50.4","31.3","47.8","30.02","252","6.2","17.3","0.00","0.00"
"15:44:56","51.3","31.9","47.4","30.02","277","8.3","19.6","0.00","0.00"
"15:49:58","50.4","28.9","43.4","30.02","274","8.5","21","0.00","0.00"
"15:54:56","49.2","28.4","44.3","30.02","273","5.5","17","0.00","0.00"
"15:59:58","49.6","29.8","46.4","30.02","268","6.8","17.3","0.00","0.00"
"16:04:51","49.7","29.4","45.4","30.02","265","7.8","16.1","0.00","0.00"
"16:09:57","48.9","28.9","45.8","30.02","269","6.7","17.3","0.00","0.00"
"16:14:56","48.6","29.6","47.6","30.03","275","5.8","13","0.00","0.00"
"16:19:58","48.5","29.2","47.1","30.03","292","6.9","16.1","0.00","0.00"
"16:24:56","48","28.3","46.4","30.03","288","7","19.6","0.00","0.00"
"16:29:58","47.8","28.7","47.4","30.04","314","8.5","22","0.00","0.00"
"16:34:56","47.8","28.9","47.7","30.04","271","6.5","22","0.00","0.00"
"16:39:59","48","29.3","48.3","30.04","256","7.9","21.9","0.00","0.00"
"16:44:57","48.9","29.8","47.5","30.04","279","7","23","0.00","0.00"
"16:49:55","49.9","29.6","45.5","30.04","314","7.6","17.3","0.00","0.00"
"16:54:58","50.1","29.6","45.1","30.04","296","8.4","21","0.00","0.00"
"16:59:52","50","30.1","46.1","30.04","251","8.2","18.4","0.00","0.00"
"17:04:56","49.5","29.1","45.2","30.04","273","6","15","0.00","0.00"
"17:09:59","49.3","30.1","47.4","30.04","245","8.6","22","0.00","0.00"
"17:14:58","49.8","30.7","47.6","30.04","258","6.1","13","0.00","0.00"
"17:19:56","49.6","30","46.6","30.04","247","6.8","15","0.00","0.00"
"17:24:58","48.9","29","46","30.04","267","8.7","22","0.00","0.00"
"17:29:56","48.9","29.7","47.3","30.05","262","5.4","15","0.00","0.00"
"17:34:58","49","29.3","46.4","30.05","303","7.7","18","0.00","0.00"
"17:39:57","49.2","30","47.5","30.05","269","6.2","14","0.00","0.00"
"17:44:59","48.9","29.8","47.6","30.06","258","6.7","19","0.00","0.00"
"17:49:57","48.6","29.6","47.7","30.06","242","7.6","15","0.00","0.00"
"17:54:59","48.6","30.3","49","30.06","245","6.5","19","0.00","0.00"
"17:59:58","48.7","29.7","47.7","30.07","259","7.2","19.6","0.00","0.00"
"18:04:50","48.6","29.6","47.5","30.07","267","6.5","17","0.00","0.00"
"18:09:56","48.3","29.6","48.2","30.07","264","7.8","22","0.00","0.00"
"18:14:59","48.8","30.7","49.4","30.08","250","6.6","18.4","0.00","0.00"
"18:19:41","49.1","30.1","47.7","30.08","252","7.3","16.1","0.00","0.00"
"18:24:59","48.5","29.3","47.2","30.08","266","7.5","15","0.00","0.00"
"18:29:57","48.1","29.1","47.7","30.08","273","7.8","16.1","0.00","0.00"
"18:34:59","47.7","28.2","46.7","30.08","271","7.5","17","0.00","0.00"
"18:39:58","47.5","28.5","47.5","30.08","288","6.7","18.4","0.00","0.00"
"18:44:56","47.4","28.8","48.2","30.10","266","5.3","11.5","0.00","0.00"
"18:49:59","47.4","28.7","47.9","30.10","290","5.5","12","0.00","0.00"
"18:54:57","47.4","28.6","47.9","30.10","281","6.8","14","0.00","0.00"
"18:59:59","47.3","28.4","47.4","30.10","284","6.9","17","0.00","0.00"
"19:04:56","47.3","28.5","47.8","30.10","270","5.2","15","0.00","0.00"
"19:09:58","47.2","28.3","47.6","30.10","298","5.6","17.3","0.00","0.00"
"19:14:58","47.1","29","49.3","30.11","286","4.2","13","0.00","0.00"
"19:19:57","46.9","28.1","47.9","30.11","289","6.5","13","0.00","0.00"
"19:24:59","46.9","28.2","48","30.11","274","4.8","13","0.00","0.00"
"19:29:58","46.6","28.1","48.3","30.11","273","4.8","12","0.00","0.00"
"19:34:56","46.4","28.4","49.3","30.11","244","4","12","0.00","0.00"
"19:39:56","46","28.4","50.1","30.11","235","3.3","9.2","0.00","0.00"
"19:44:59","45.7","29","51.7","30.12","225","2.7","9.2","0.00","0.00"
"19:49:53","45.5","28.8","52","30.12","250","2.4","7","0.00","0.00"
"19:54:56","45.4","28.8","52.1","30.12","243","2.4","7","0.00","0.00"
"19:59:59","45.2","29","52.8","30.13","234","2","5","0.00","0.00"
"20:04:52","45","29.3","54.1","30.13","222","2.4","4","0.00","0.00"
"20:09:58","44.9","28.9","53.2","30.13","258","3.6","7","0.00","0.00"
"20:14:57","45.1","29.2","53.4","30.14","253","2.6","5","0.00","0.00"
"20:19:56","45","29.3","53.8","30.14","249","4.8","11.5","0.00","0.00"
"20:24:58","44.9","29.1","53.7","30.14","247","4.5","11.5","0.00","0.00"
"20:29:56","44.9","29.2","53.8","30.15","242","4.4","11.5","0.00","0.00"
"20:34:59","44.7","29.4","54.8","30.15","254","4.1","11","0.00","0.00"
"20:39:58","44.6","29.3","54.9","30.15","259","5.6","15","0.00","0.00"
"20:44:57","44.5","29.5","55.3","30.16","239","4.9","14","0.00","0.00"
"20:49:56","44.5","29.4","55.2","30.16","248","3.5","7","0.00","0.00"
"20:54:58","44.5","29.4","55.2","30.16","272","3.7","11.5","0.00","0.00"
"20:59:57","44.6","29.7","55.5","30.17","250","3.3","11.5","0.00","0.00"
"21:04:58","44.8","29.4","54.7","30.17","286","4","10.4","0.00","0.00"
"21:09:59","44.7","29.5","54.9","30.17","265","3.4","8.1","0.00","0.00"
"21:14:59","44.5","29.6","55.6","30.18","248","2.2","5.8","0.00","0.00"
"21:19:58","44.3","30","57","30.18","229","2","5","0.00","0.00"
"21:24:56","44.2","30.2","57.8","30.18","223","2.1","5","0.00","0.00"
"21:29:59","44","30.3","58.2","30.19","212","1.8","4","0.00","0.00"
"21:34:58","43.8","30.1","58.2","30.19","233","1.9","6","0.00","0.00"
"21:39:58","43.6","29.9","58.2","30.19","237","2.5","5","0.00","0.00"
"21:44:56","43.4","29.6","58","30.19","234","3.7","6","0.00","0.00"
"21:49:59","43.3","29.5","58","30.19","242","2.5","6","0.00","0.00"
"21:54:57","43.1","29.5","58.4","30.19","233","2.4","5.8","0.00","0.00"
"21:59:56","43","29.3","58.5","30.20","212","2.6","6","0.00","0.00"
"22:04:57","42.8","29.5","59","30.20","227","2.5","7","0.00","0.00"
"22:09:59","42.8","29.6","59.3","30.20","243","2.9","8","0.00","0.00"
"22:14:58","43.2","29.6","58.6","30.21","270","4.2","11.5","0.00","0.00"
"22:19:56","43.6","29.8","58","30.21","266","5.1","14","0.00","0.00"
"22:24:59","43.8","30","58","30.21","254","3.9","10.4","0.00","0.00"
"22:29:58","43.9","30.3","58.7","30.22","252","3.2","6","0.00","0.00"
"22:30:56","43.9","30.5","59","30.22","249","3","6","0.00","0.00"
"22:39:59","44","30.5","58.8","30.22","303","2.1","7","0.00","0.00"
"22:44:58","43.9","30.7","59.6","30.22","230","1.2","3.5","0.00","0.00"
"22:49:57","43.6","30.7","60.1","30.22","214","1","7","0.00","0.00"
"22:54:59","43.6","30.9","60.6","30.22","248","3.3","7","0.00","0.00"
"22:59:58","43.7","30.9","60.5","30.23","263","2.6","5","0.00","0.00"
"23:04:55","43.7","31.1","60.8","30.23","272","2.6","6","0.00","0.00"
"23:09:57","43.7","31.4","61.6","30.23","231","1.3","5.8","0.00","0.00"
"23:14:57","43.6","31.4","61.9","30.23","241","1.5","3.5","0.00","0.00"
"23:19:56","43.6","31.2","61.5","30.23","312","0.7","4","0.00","0.00"
"23:24:58","43.6","31","61.1","30.23","304","2.1","6","0.00","0.00"
"23:29:57","43.6","31.6","62.5","30.23","324","1.1","4","0.00","0.00"
"23:34:59","43.6","31.4","62","30.23","315","2.2","4","0.00","0.00"
"23:39:59","43.6","31.7","62.9","30.23","294","1","4.6","0.00","0.00"
"23:44:58","43.5","31.8","63.3","30.24","307","1.3","4","0.00","0.00"
"23:49:56","43.4","31.8","63.5","30.24","322","1.3","3.5","0.00","0.00"
"23:54:58","43.4","31.7","63.3","30.24","319","1.7","7","0.00","0.00"
"23:59:57","43.4","32","64","30.25","340","1.9","5.8","0.00","0.00"
